Overview Statistics Trail Chart Weather Telemetry Raw packets
 

This is the latest recevied weather packets stored in our database for station/object KG5MMT-15. If no packets are shown the sender has not sent any weather packets the latest 10 day(s).

<< 91 92 93 94 95 96 97 >>
Time Temp. Humidity Pressure Rain* Wind** Luminosity Snow
1788028977 30° C 19% 0 hPa 0 mm - - -
1788028677 29.44° C 23% 0 hPa 0 mm - - -
1788028377 29.44° C 20% 0 hPa 0 mm - - -
1788028077 28.89° C 22% 0 hPa 0 mm - - -
1788027777 28.33° C 23% 0 hPa 0 mm - - -
1788027477 27.78° C 24% 0 hPa 0 mm - - -
1788027177 28.33° C 24% 0 hPa 0 mm - - -
1788026877 28.89° C 22% 0 hPa 0 mm - - -
1788026577 30° C 26% 0 hPa 0 mm - - -
1788026277 29.44° C 25% 0 hPa 0 mm - - -
1788025977 30° C 23% 0 hPa 0 mm - - -
1788025677 29.44° C 23% 0 hPa 0 mm - - -
1788025377 29.44° C 26% 0 hPa 0 mm - - -
1788025077 29.44° C 25% 0 hPa 0 mm - - -
1788024777 29.44° C 25% 0 hPa 0 mm - - -
1788024477 29.44° C 24% 0 hPa 0 mm - - -
1788024177 29.44° C 26% 0 hPa 0 mm - - -
1788023877 29.44° C 27% 0 hPa 0 mm - - -
1788023577 29.44° C 27% 0 hPa 0 mm - - -
1788023277 28.89° C 26% 0 hPa 0 mm - - -
1788022977 28.89° C 27% 0 hPa 0 mm - - -
1788022677 28.33° C 29% 0 hPa 0 mm - - -
1788022377 28.33° C 27% 0 hPa 0 mm - - -
1788022077 28.33° C 27% 0 hPa 0 mm - - -
1788021777 27.78° C 26% 0 hPa 0 mm - - -

* Rain latest hour (hover to see other rain measurements)
** Current wind speed in m/s (hover to see current wind gust speed)